Location: Newark
(36.2667°N, 50.0000°E)
Time: 21:56:38
(UTC+00:00)

Hubble Space Telescope - Pass Details

Date: 28 September 2020
Orbit: 536 x 540 km, 28.5° (Epoch: 26 October)

Event Time Altitude Azimuth Distance (km) Brightness Sun altitude
Exits shadow 00:59:00 22° 188° (S) 1,198 2.3 -19.6°
Maximum altitude 00:59:46 23° 170° (S) 1,154 2.4 -19.5°
Drops below altitude 10° 01:03:03 10° 117° (ESE) 1,776 4.1 -18.8°
Sets 01:05:38 0° 103° (ESE) 2,667 5.5 -18.3°
